Regional Weather Roundup
Issued by NWS State College, PA

Home | Current Version | Previous Version | Text Only | Print | Product List | Glossary Off
Versions: 1 2 3 4 5 6 7 8 9 10 11 12 13 14 15 16 17 18 19 20 21 22 23 24 25 26 27 28 29 30 31 32 33 34 35 36 37 38 39 40 41 42 43 44 45 46 47 48 49 50

000
ASUS41 KCTP 231510
RWRCTP

REGIONAL WEATHER ROUNDUP
NATIONAL WEATHER SERVICE STATE COLLEGE PA
1100 AM EDT WED APR 23 2014

Note: "fair" indicates few or no clouds below 12,000 feet with no
significant weather and/or obstructions to visibility.

* = STATION THAT DOES NOT REPORT PRECIPITATION /E.G. RAIN...SNOW...ETC/
    THUNDER OR FOG.

PAZ002>004-007>009-013>016-020>023-029>032-231600-
WESTERN PENNSYLVANIA

CITY           SKY/WX    TMP DP  RH WIND       PRES   REMARKS
ERIE           CLOUDY    37  31  78 W12G17    29.99R
MEADVILLE      CLOUDY    34  31  88 NW13G25   29.96R
FRANKLIN*      CLOUDY    34  28  80 NW12G18   29.97R
NEW CASTLE     CLOUDY    38  31  76 NW10G17   30.01R
BEAVER COUNTY  CLOUDY    39  32  75 NW12G24   29.98R
BUTLER*        CLOUDY    39  30  70 W12G18    29.98R
PITTSBURGH INT CLOUDY    41  32  70 NW15      29.98R
PITTSBURGH     CLOUDY    42  30  62 NW9G18    29.96R
INDIANA*       CLOUDY    37  36  93 NW14      29.93S
LATROBE        CLOUDY    41  34  75 W9G18     29.96R
WASHINGTON CO* CLOUDY    43  30  61 NW12G17   30.00S
$$

PAZ004>006-010>012-017>019-024>028-033>037-041-042-045-046-049>053-231600-
CENTRAL PENNSYLVANIA

CITY           SKY/WX    TMP DP  RH WIND       PRES   REMARKS
BRADFORD       CLOUDY    35  29  78 NW16G22   29.84S
DUBOIS         CLOUDY    36  33  89 NW13G20   29.87R
CLEARFIELD     CLOUDY    40  32  73 W13G22    29.86R
JOHNSTOWN      CLOUDY    35  30  82 NW16G31   29.87R
ALTOONA        CLOUDY    41  32  70 NW15      29.87R
STATE COLLEGE  CLOUDY    43  32  65 NW12G22   29.84R
WILLIAMSPORT   CLOUDY    50  32  50 NW20G25   29.78R
SELINSGROVE    CLOUDY    49  34  56 W12G20    29.79R
FT INDIANTOWN  PTSUNNY   50  34  53 W9G23     29.77R
CAPITAL CITY   PTSUNNY   50  33  52 NW16G28   29.79R
HARRISBURG     PTSUNNY   50  34  54 NW23G29   29.78R
YORK           CLOUDY    52  36  54 NW15G25   29.79R
$$

PAZ038>040-043-044-047-048-054-055-060>062-067>071-231600-
EASTERN PENNSYLVANIA

CITY           SKY/WX    TMP DP  RH WIND       PRES   REMARKS
SCRANTON       CLOUDY    43  35  73 W16       29.72R
MOUNT POCONO   CLOUDY    41  35  79 NW23G33   29.64R
ALLENTOWN      CLOUDY    52  34  50 NW16G25   29.69R HAZE
QUAKERTOWN*    PTSUNNY   50  36  57 W13G25    29.69S
READING        CLOUDY    51  34  52 NW24G33   29.73R
LANCASTER      CLOUDY    48  34  58 NW21G31   29.76R
COATESVILLE    CLOUDY    48  32  53 NW18G28   29.74R
POTTSTOWN      CLOUDY    49  35  58 W15G25    29.72R
BLUE BELL      PTSUNNY   52  34  50 NW8G29    29.69F
DOYLESTOWN     CLOUDY    50  36  58 W14G22    29.67F
WILLOW GROVE   NOT AVBL
NORTH PHILA    CLOUDY    53  33  46 NW14G22   29.71R
PHILADELPHIA   CLOUDY    53  31  42 NW20G28   29.71S
$$



USA.gov is the U.S. government's official web portal to all federal, state and local government web resources and services.